TimeEDT,TemperatureF,Dew PointF,Humidity,Sea Level PressureIn,VisibilityMPH,Wind Direction,Wind SpeedMPH,Gust SpeedMPH,PrecipitationIn,Events,Conditions,WindDirDegrees,DateUTC
12:52 AM,27.0,25.0,92,29.73,10.0,Calm,Calm,-,N/A,,Clear,0,2013-03-14 04:52:00
1:52 AM,28.0,25.0,88,29.72,10.0,Calm,Calm,-,N/A,,Partly Cloudy,0,2013-03-14 05:52:00
2:52 AM,28.9,25.0,85,29.72,10.0,Calm,Calm,-,N/A,,Overcast,0,2013-03-14 06:52:00
3:52 AM,28.9,25.0,85,29.70,6.0,WSW,6.9,-,0.00,Snow,Light Snow,240,2013-03-14 07:52:00
4:11 AM,30.2,24.8,80,29.66,9.0,SW,4.6,-,0.00,Snow,Light Snow,220,2013-03-14 08:11:00
5:52 AM,28.9,23.0,78,29.71,10.0,Variable,3.5,-,N/A,,Overcast,0,2013-03-14 09:52:00
6:52 AM,28.0,19.9,72,29.71,10.0,West,4.6,-,0.00,,Overcast,260,2013-03-14 10:52:00
7:52 AM,28.0,21.0,75,29.72,10.0,WSW,9.2,-,0.00,Snow,Light Snow,240,2013-03-14 11:52:00
8:52 AM,27.0,21.0,78,29.72,10.0,SSW,9.2,-,0.00,,Overcast,210,2013-03-14 12:52:00
9:52 AM,28.0,19.9,72,29.72,9.0,West,8.1,-,0.00,Snow,Light Snow,260,2013-03-14 13:52:00
10:08 AM,28.4,19.4,69,29.68,4.0,WSW,8.1,-,0.00,Snow,Light Snow,250,2013-03-14 14:08:00
10:19 AM,26.6,21.2,80,29.68,1.8,West,5.8,-,0.00,Snow,Light Snow,270,2013-03-14 14:19:00
10:25 AM,26.6,19.4,74,29.68,3.0,West,6.9,-,0.00,Snow,Light Snow,270,2013-03-14 14:25:00
10:47 AM,26.6,19.4,74,29.68,2.0,West,6.9,-,0.00,Snow,Light Snow,260,2013-03-14 14:47:00
10:52 AM,27.0,21.0,78,29.72,2.0,West,8.1,-,0.00,Snow,Light Snow,270,2013-03-14 14:52:00
11:15 AM,24.8,19.4,80,29.67,1.0,WNW,12.7,19.6,0.00,Snow,Light Snow,290,2013-03-14 15:15:00
11:23 AM,26.6,19.4,74,29.67,2.0,WNW,9.2,-,0.00,Snow,Light Snow,300,2013-03-14 15:23:00
11:30 AM,26.6,19.4,74,29.67,9.0,WNW,8.1,-,0.00,,Overcast,290,2013-03-14 15:30:00
11:38 AM,26.6,19.4,74,29.67,10.0,WNW,9.2,-,0.00,,Overcast,300,2013-03-14 15:38:00
11:52 AM,27.0,18.0,69,29.72,10.0,WNW,9.2,-,0.00,,Overcast,290,2013-03-14 15:52:00
12:52 PM,30.0,17.1,59,29.70,10.0,NW,8.1,18.4,N/A,,Overcast,310,2013-03-14 16:52:00
1:52 PM,28.0,12.0,51,29.70,10.0,NW,13.8,25.3,N/A,,Overcast,310,2013-03-14 17:52:00
2:52 PM,27.0,12.0,53,29.69,10.0,WNW,12.7,20.7,N/A,,Overcast,300,2013-03-14 18:52:00
3:52 PM,26.1,12.0,55,29.71,10.0,NW,12.7,-,N/A,,Overcast,320,2013-03-14 19:52:00
5:52 PM,19.9,7.0,57,29.79,10.0,WNW,12.7,-,N/A,,Overcast,290,2013-03-14 21:52:00
6:01 PM,19.4,6.8,58,29.75,10.0,WNW,10.4,23.0,N/A,,Overcast,300,2013-03-14 22:01:00
6:12 PM,19.4,6.8,58,29.75,10.0,WNW,13.8,-,N/A,,Overcast,300,2013-03-14 22:12:00
6:52 PM,19.0,5.0,54,29.83,10.0,NW,12.7,19.6,N/A,,Overcast,310,2013-03-14 22:52:00
7:52 PM,16.0,3.0,57,29.86,10.0,WNW,6.9,17.3,N/A,,Overcast,290,2013-03-14 23:52:00
8:52 PM,15.1,3.0,59,29.87,10.0,WNW,5.8,-,N/A,,Partly Cloudy,290,2013-03-15 00:52:00
9:52 PM,15.1,3.9,61,29.86,10.0,West,4.6,-,N/A,,Mostly Cloudy,280,2013-03-15 01:52:00
10:52 PM,15.1,3.0,59,29.86,10.0,Variable,4.6,-,N/A,,Mostly Cloudy,0,2013-03-15 02:52:00
11:52 PM,15.1,3.9,61,29.86,10.0,West,5.8,-,N/A,,Overcast,270,2013-03-15 03:52:00